PYRO2: Pryor Creek

Data processed at Tue May 21 2019 23:50


All information presented herein is the property of the government of the United States of America and may be revised or deleted at any time without prior notice.
Dissemination of this information without the expressed written consent of the Public Affairs Office, Tulsa District U.S. Army Corps of Engineers is strictly prohibited.
These data are gathered electronically and, as presented, have not undergone any form of quality control. These data are not guaranteed to be valid or correct.
Go to home page.
Go to station list.
Go to home page.

Downstream station:


Previous Day
Next Day
Current Day
    
SHEF ID:       PYRO2     Pryor Creek
STATION TYPE:  
Regulating: Stage =    21.00, Flow =     3244

               PRECIP     STAGE  RIV-FLOW   VOLTAGE  BAT-LOAD
                   in        ft       cfs      volt      volt
              Ccp-Rev   Ccp-Rev   Ccp-Rev   Ccp-Rev   Ccp-Rev
(US/Central)
05/21 00:00      0.74     15.98      1686     13.05     12.89
05/21 01:00      0.48     19.73      2764     13.05     12.89
05/21 02:00      0.14     21.61      3528     12.97     12.81
05/21 03:00      0.00     23.31      8126     12.97     12.81
05/21 04:00      0.00     24.42     13511     12.97     12.81
05/21 05:00      0.00     24.65     14685     12.97     12.81
05/21 06:00      0.01     24.57     14277     12.89     12.73
05/21 07:00      0.00     24.38     13306     12.89     12.73
05/21 08:00      0.75     24.23     12540     12.89     12.73
05/21 09:00      0.46     24.16     12183     12.89     12.73
05/21 10:00      0.13     24.30     12898     12.97     12.73
05/21 11:00      0.01     24.71     14992     14.08     13.68
05/21 12:00      0.03     25.21     17545     14.00     13.53
05/21 13:00      0.01     25.62     19639     13.92     13.76
05/21 14:00      0.03     25.94      ----     14.00     13.60
05/21 15:00      0.00     26.12      ----     13.92     13.68
05/21 16:00      0.00     26.21      ----     14.00     14.24
05/21 17:00      0.00     26.21      ----     13.76     13.53
05/21 18:00      0.00     26.13      ----     14.16     14.00
05/21 19:00      0.00     26.01      ----     13.68     13.53
05/21 20:00      0.00     25.86      ----     13.53     13.53
05/21 21:00      0.00     25.69     19996     13.21     13.13
05/21 22:00      0.00     25.53     19179     13.13     12.97
05/21 23:00      0.00     25.37     18362     13.05     12.97